HAIYANG 1

导读

HAIYANG 1(海洋一号)是中国于2002年5月15日成功发射的首颗海洋水色遥感卫星,作为中国海洋卫星系列的开篇之作,它开启了中国自主海洋遥感监测的新时代。该卫星搭载了水色扫描仪和海岸带成像仪,可获取全球海洋水色水温、海岸带环境等数据,为海洋资源开发、环境保护、灾害预警与科学研究提供关键支撑,填补了中国在海洋卫星遥感领域的空白,奠定了中国海洋遥感技术发展的基础。

Basic Information
目录编号:
27430
目录名称:
HAIYANG 1
国际标识:
2002-024A
轨道中心:
EARTH
卫星名称:
HAIYANG 1
卫星全名:
--
卫星状态:
在轨 (已飞行8889 天)
发射日期:
2002-05-15 UTC
国别 :
中国 (CN)
星等 :
--
This satellite is enrolled in the Space Conjunction Data Service (SCDS) and the current flight risk assessment level is: No High Risk
Orbit Information
数据来源 国际轨道数据 AOE轨道数据
星历时间 2026-09-15T16:38:32+0800
13小时前
查看轨道信息
2026-09-15T07:00:00+0800
23小时前
查看轨道信息
半长轴 7159.212km 7159.213km
偏心率 0.0008795 0.0008902
轨道倾角 98.740° 98.740°
近地点辐角 165.250° 168.258°
升交点赤经 221.171° 220.764°
平近点角 194.895° 280.208°
近地点 774.778km 774.702km
远地点 787.372km 787.45km
周期 100.475分钟 100.475分钟
每日圈数 14.33194 14.331937
Detailed Information
使用方式:
暂无
2D Orbit Map
3D Orbit Map
Orbit Altitude Analysis Chart
Orbit Inclination Analysis Chart
Orbit Comprehensive Analysis Chart
View Comprehensive Chart
Conjunction Data List
Event ID Objects TCA Miss Dist (km) Collision Risk Probability Collision Risk Index (CRI) Action
CDM_260917-094902-743004-191722
2026-09-17T
09:49:25+0000
1.111 km
极远距离
1.895155E-5 中风险 0.61
Miss Distance Evolution Trend with All Objects Subscribe to Flight Safety Assessment
Collision Probability Evolution Trend with All Objects Subscribe to Flight Safety Assessment